Weather in Poprad

Slovakia     49°03′18″N   20°18′09″E
temp.,
°C
wind,
m/s
gust,
m/s
humid.,
%
clouds,
%
prec.,
mm/h
press.,
hPa
HPBL,
m
28 february, sun
sun2801:00−4w33903 0.1 103560
04:00−3wnw22871 0.0 103537
07:00−2wnw228223 0.0 103564
10:00+2nw015687 0.0 1035481
13:00+5ssw124443 0.0 1033786
16:00+4wnw01596 0.0 103262
19:00−1wnw227525 0.0 103222
22:00−2wnw237413 0.0 103246
1 march, mon
mon101:00−2nw22857 0.0 103233
04:00−1nw119428 0.1 103275
07:00−1nne019660 0.2 103340
10:00+3nne236754 0.0 1034788
13:00+5ene336027 0.0 1035726
16:00+3ene23730 0.0 1034355
19:00−1ne11920 0.0 103621
22:00−1wnw11900 0.0 103621
2 march, tue
tue201:00−1wnw12710 0.0 103621
04:00−1w22560 0.0 103521
07:000w22510 0.0 103523
10:00+7wsw11340 0.0 1034257
13:00+10s01370 0.0 1034629
16:00+8e01580 0.0 103227
19:00+2wnw22740 0.0 103322
22:00+1wnw22620 0.0 103322
3 march, wed
wed301:00+1wnw11480 0.0 103322
04:00+1w12470 0.0 103222
07:00+1w22490 0.0 103222
10:00+8sse11350 0.0 1031306
13:00+11se11370 0.0 1029751
16:00+8s226256 0.0 1027134
19:00+2sw228828 0.0 102728
22:000wsw23890 0.0 102630
4 march, thu
thu401:000wsw22860 0.0 102433
04:00−1wsw22791 0.0 102333
07:000w22737 0.0 102150
10:00+7sw23480 0.0 1019450
13:00+9wsw244113 0.0 1017986
16:00+8sw135944 0.0 1015235
19:00+2wsw228527 0.0 101429
22:00+2wsw3381100 0.0 101347